Regional Weather Roundup
Issued by NWS

Home | Current Version | Previous Version | Graphics & Text | Print | Product List | Glossary On
Versions: 1 2 3 4 5 6 7 8 9 10 11 12 13 14 15 16 17 18 19 20 21 22 23 24 25 26 27 28 29 30 31 32 33 34 35 36 37 38 39 40 41 42 43 44 45 46 47 48 49 50
000
ASUS45 KTFX 271010
RWRMT
MONTANA REGIONAL WEATHER ROUNDUP
NATIONAL WEATHER SERVICE GREAT FALLS MT
400 AM MDT WED MAY 27 2015

NOTE: "FAIR" INDICATES FEW OR NO CLOUDS BELOW 12000 FEET WITH NO
SIGNIFICANT WEATHER AND/OR OBSTRUCTIONS TO VISIBILITY.

MTZ001>007-043-271100-
WEST OF THE DIVIDE

CITY           SKY/WX    TMP DP  RH WIND       PRES   REMARKS
KALISPELL      PTSUNNY   44  42  93 W5        29.99R
MISSOULA       MOCLDY    47  44  90 E3        30.03R
BUTTE          CLOUDY    47  42  83 CALM      30.06S
MULLAN PASS    MOCLDY    44  39  82 CALM      30.05S
$$

MTZ008-052>055-271100-
SOUTHWEST MONTANA

CITY           SKY/WX    TMP DP  RH WIND       PRES   REMARKS
BOZEMAN        MOCLDY    50  47  89 S6        30.04S
DILLON         CLOUDY    49  46  90 CALM      30.04S
W YELLOWSTONE  CLOUDY    41  39  93 S3        30.10S
$$

MTZ009-010-012-014-046-048-049-054-271100-
EAST SLOPES AND CENTRAL MONTANA

CITY           SKY/WX    TMP DP  RH WIND       PRES   REMARKS
CUT BANK       CLOUDY    50  46  86 N13       30.01S
GREAT FALLS    MOCLDY    47  46  97 SW10      30.01R
MALMSTROM AFB  MOCLDY    49  48  98 W8        30.00S
HELENA         RAIN      51  48  89 CALM      30.03S FOG
$$

MTZ011-013-016-021-045-047-050-051-271100-
NORTH CENTRAL MONTANA

CITY           SKY/WX    TMP DP  RH WIND       PRES   REMARKS
HAVRE          CLOUDY    54  51  90 SW7       29.96R
LEWISTOWN      MOCLDY    46  43  89 CALM      30.00R
N BAR RANCH    CLOUDY    46  43  87 W6        30.02S
$$

MTZ017>020-022>027-061-062-271100-
NORTHEAST MONTANA

CITY           SKY/WX    TMP DP  RH WIND       PRES   REMARKS
GLASGOW        LGT RAIN  62  49  62 SW14      29.90S
JORDAN           N/A     57  53  86 NW6       29.92R
SIDNEY         CLEAR     48  43  81 CALM      29.92S
WOLF POINT     MOCLDY    55  48  77 E3        29.89S
$$

MTZ028>42-056>058-271100-
SOUTHCENTRAL AND SOUTHEAST MONTANA

CITY           SKY/WX    TMP DP  RH WIND       PRES   REMARKS
BAKER          PTCLDY    46  44  93 SE5       29.95R
BILLINGS       CLOUDY    53  50  89 CALM      29.96S
LIVINGSTON     MOCLDY    50  43  77 W8        30.01R
MILES CITY     MOCLDY    56  50  80 CALM      29.90S
$$

REGIONAL REPORTS...DAKOTAS

CITY           SKY/WX    TMP DP  RH WIND       PRES   REMARKS
WILLISTON      PTCLDY    51  44  77 SW5       29.91S
MINOT          CLEAR     59  45  59 SW12      29.88S
DICKINSON      CLEAR     49  42  77 S6        29.94S
BEACH          FAIR      46  46 100 S5        29.95S
CROSBY         FAIR      54  50  87 SW12      29.91R
WATFORD CITY   FAIR      48  41  76 CALM      29.91S
BISMARCK       CLEAR     52  49  89 CALM      29.94R
GRAND FORKS    CLEAR     55  48  77 NW8       29.82R
FARGO          PTCLDY    56  49  77 CALM      29.82R
BUFFALO SD       N/A     53  46  77 S3        29.90S
RAPID CITY     MOCLDY    50  47  89 SE9       29.97S
$$

REGIONAL REPORTS...WYOMING/IDAHO/WASHINGTON

CITY           SKY/WX    TMP DP  RH WIND       PRES   REMARKS
GILLETTE       MOCLDY    50  47  89 S10       29.97S
SHERIDAN       CLOUDY    48  45  89 SW5       29.94F
BUFFALO WY     CLOUDY    52  46  80 CALM      29.98F
CODY           CLOUDY    52  45  76 NW5       30.00R
YELLOWSTONE LA   N/A     36  34  92 CALM      30.15S
IDAHO FALLS    MOCLDY    44  43  96 CALM      30.07S
SALMON         MOCLDY    46  43  87 SE3       30.02S
BOISE          PTCLDY    55  47  74 SE10      29.94F
SPOKANE        PTCLDY    51  48  89 CALM      29.99R
$$

REGIONAL REPORTS...ALBERTA

CITY           SKY/WX    TMP DP  RH WIND       PRES   REMARKS
EDMONTON       CLEAR     48  43  81 W3        29.97F
CALGARY        LGT RAIN  54  46  76 W7        30.05S
LETHBRIDGE     MOCLDY    52  48  87 W9        30.01R
MEDICINE HAT   PTCLDY    57  48  72 W5        29.97S
$$

REGIONAL REPORTS...SASKATCHEWAN

CITY           SKY/WX    TMP DP  RH WIND       PRES   REMARKS
SWIFT CURRENT  CLOUDY    54  48  82 NE8       29.93R
REGINA         PTCLDY    54  46  76 E13G22    29.94R
SASKATOON      PTCLDY    46  41  81 E5        30.04R
$$


USA.gov is the U.S. government's official web portal to all federal, state and local government web resources and services.